TimeCDT,TemperatureF,Dew PointF,Humidity,Sea Level PressureIn,VisibilityMPH,Wind Direction,Wind SpeedMPH,Gust SpeedMPH,PrecipitationIn,Events,Conditions,WindDirDegrees,DateUTC
1:53 AM,32.0,21.0,64,30.07,10.0,Calm,Calm,-,N/A,,Clear,0,2013-03-21 06:53:00
2:53 AM,30.9,21.0,67,30.06,10.0,East,5.8,-,N/A,,Clear,80,2013-03-21 07:53:00
3:53 AM,30.9,19.0,61,30.03,10.0,East,6.9,-,N/A,,Mostly Cloudy,80,2013-03-21 08:53:00
4:53 AM,32.0,18.0,56,30.02,10.0,East,8.1,-,N/A,,Overcast,90,2013-03-21 09:53:00
5:53 AM,32.0,18.0,56,30.01,10.0,East,8.1,-,N/A,,Overcast,100,2013-03-21 10:53:00
6:53 AM,33.1,16.0,50,30.01,10.0,East,11.5,-,N/A,,Overcast,80,2013-03-21 11:53:00
7:53 AM,33.1,12.9,43,30.01,10.0,East,10.4,-,N/A,,Overcast,100,2013-03-21 12:53:00
8:53 AM,35.1,12.9,40,30.01,10.0,East,10.4,-,N/A,,Overcast,90,2013-03-21 13:53:00
9:53 AM,37.0,10.9,34,29.99,10.0,East,15.0,-,N/A,,Overcast,100,2013-03-21 14:53:00
10:53 AM,39.0,12.0,33,29.97,10.0,East,12.7,-,N/A,,Overcast,100,2013-03-21 15:53:00
11:53 AM,41.0,12.0,31,29.96,10.0,SE,9.2,-,N/A,,Overcast,140,2013-03-21 16:53:00
12:53 PM,37.9,27.0,65,29.94,5.0,ESE,13.8,-,0.01,Snow,Light Snow,120,2013-03-21 17:53:00
1:09 PM,37.4,28.4,70,29.91,3.0,ESE,11.5,24.2,0.00,Snow,Light Snow,110,2013-03-21 18:09:00
1:36 PM,35.6,30.2,81,29.90,1.5,SE,17.3,23.0,0.00,Snow,Light Snow,130,2013-03-21 18:36:00
1:43 PM,33.8,30.2,87,29.90,0.8,ESE,15.0,23.0,0.00,Snow,Light Snow,110,2013-03-21 18:43:00
1:53 PM,33.1,32.0,96,29.92,1.0,ESE,12.7,20.7,0.01,Snow,Light Snow,110,2013-03-21 18:53:00
2:22 PM,33.8,32.0,93,29.87,1.0,ESE,11.5,-,0.01,Snow,Light Snow,110,2013-03-21 19:22:00
2:35 PM,33.8,30.2,87,29.85,2.0,ESE,10.4,-,0.02,Snow,Light Snow,110,2013-03-21 19:35:00
2:42 PM,32.0,30.2,93,29.84,1.0,ESE,12.7,-,0.02,Snow,Light Snow,110,2013-03-21 19:42:00
2:53 PM,32.0,32.0,100,29.86,1.5,ESE,13.8,-,0.03,Snow,Light Snow,110,2013-03-21 19:53:00
3:00 PM,32.0,32.0,100,29.83,3.0,East,10.4,-,0.01,Snow,Light Snow,100,2013-03-21 20:00:00
3:30 PM,33.8,30.2,87,29.81,9.0,ESE,16.1,-,0.02,Rain,Light Rain,110,2013-03-21 20:30:00
3:53 PM,33.1,32.0,96,29.83,4.0,East,16.1,21.9,0.03,Rain,Light Rain,100,2013-03-21 20:53:00
4:44 PM,33.8,33.8,100,29.80,10.0,ESE,15.0,20.7,0.02,Rain,Light Rain,110,2013-03-21 21:44:00
4:53 PM,34.0,33.1,96,29.82,10.0,East,15.0,20.7,0.02,,Overcast,100,2013-03-21 21:53:00
5:53 PM,34.0,33.1,96,29.81,10.0,East,12.7,-,0.00,,Overcast,90,2013-03-21 22:53:00
6:53 PM,34.0,33.1,96,29.82,10.0,East,13.8,-,N/A,,Overcast,100,2013-03-21 23:53:00
7:53 PM,34.0,33.1,96,29.83,8.0,East,12.7,-,0.01,Rain,Light Rain,90,2013-03-22 00:53:00
8:53 PM,34.0,32.0,92,29.82,10.0,East,12.7,-,0.02,Rain,Light Rain,90,2013-03-22 01:53:00
9:53 PM,33.1,32.0,96,29.83,10.0,East,11.5,21.9,0.01,Rain,Light Rain,90,2013-03-22 02:53:00
10:53 PM,33.1,33.1,100,29.84,10.0,East,13.8,-,0.00,Rain,Light Rain,100,2013-03-22 03:53:00
11:53 PM,33.1,32.0,96,29.84,10.0,East,13.8,19.6,0.05,,Overcast,80,2013-03-22 04:53:00